EZY911 LFMU-EGCC

Flight info

Callsign EZY911
Flight time N/A
Altitude 36000
Route AFRIC G39 GAI/N0447F380 DCT SECHE DCT UVELI DCT CNA DCT TUPAR UN861 ANG DCT AKIKI UN867 AVANT UM184 HEMEL T420 ELVOS
Aircraft A20N/M-SDE2E3FGHIRWXY/LB1

Departure

Time 2026-04-24 00:01
Airport Béziers Vias airport (LFMU)

Arrival

Time N/A
Airport Manchester Airport (EGCC)
Time Latitude Longitude Altitude Speed Heading
2026-04-23 23:46 43.32134 3.35396 54 ft 0 kts 308°
2026-04-23 23:56 43.32134 3.35395 54 ft 0 kts 308°
2026-04-23 23:57 43.32151 3.35367 54 ft 7 kts 311°
2026-04-23 23:57 43.32210 3.35324 54 ft 12 kts
2026-04-23 23:57 43.32291 3.35334 56 ft 11 kts
2026-04-23 23:57 43.32346 3.35282 56 ft 12 kts 274°
2026-04-23 23:58 43.32357 3.35133 54 ft 18 kts 279°
2026-04-23 23:58 43.32368 3.34962 54 ft 18 kts 271°
2026-04-23 23:58 43.32373 3.34779 54 ft 19 kts 273°
2026-04-23 23:58 43.32382 3.34602 57 ft 18 kts 274°
2026-04-23 23:59 43.32393 3.34427 56 ft 18 kts 275°
2026-04-23 23:59 43.32384 3.34329 54 ft 7 kts 259°
2026-04-23 23:59 43.32402 3.34290 54 ft 3 kts 16°
2026-04-23 23:59 43.32400 3.34326 54 ft 4 kts 111°
2026-04-24 00:00 43.32395 3.34353 55 ft 0 kts 92°
2026-04-24 00:00 43.32379 3.34614 57 ft 68 kts 95°
2026-04-24 00:00 43.32327 3.35604 57 ft 138 kts 93°
2026-04-24 00:01 43.32257 3.37107 325 ft 168 kts 93°
2026-04-24 00:01 43.32188 3.38696 1113 ft 169 kts 94°
2026-04-24 00:01 43.32103 3.40313 1745 ft 175 kts 93°
2026-04-24 00:01 43.32399 3.41928 2283 ft 190 kts 58°
2026-04-24 00:02 43.33549 3.43043 2656 ft 221 kts 20°
2026-04-24 00:02 43.35155 3.43082 3017 ft 251 kts 344°
2026-04-24 00:02 43.36639 3.41688 3496 ft 273 kts 306°
2026-04-24 00:02 43.37492 3.39337 4231 ft 279 kts 283°
2026-04-24 00:03 43.37512 3.36747 5030 ft 276 kts 250°
2026-04-24 00:03 43.36742 3.34363 5459 ft 273 kts 244°
2026-04-24 00:03 43.36603 3.31838 6073 ft 278 kts 286°
2026-04-24 00:03 43.37696 3.29732 7170 ft 275 kts 324°
2026-04-24 00:04 43.39458 3.28655 7544 ft 287 kts 342°
2026-04-24 00:04 43.41373 3.27753 7895 ft 293 kts 340°
2026-04-24 00:04 43.43311 3.26672 8312 ft 310 kts 330°
2026-04-24 00:04 43.45032 3.24986 9362 ft 303 kts 321°
2026-04-24 00:05 43.46603 3.23167 10490 ft 293 kts 319°
2026-04-24 00:05 43.48139 3.21343 11231 ft 298 kts 319°
2026-04-24 00:05 43.49747 3.19440 11592 ft 315 kts 319°
2026-04-24 00:05 43.51457 3.17427 11910 ft 333 kts 320°
2026-04-24 00:06 43.53264 3.15308 12199 ft 350 kts 320°
2026-04-24 00:06 43.55130 3.13126 12672 ft 360 kts 320°
2026-04-24 00:06 43.57032 3.10900 13344 ft 364 kts 320°
2026-04-24 00:06 43.58966 3.08636 14064 ft 365 kts 320°
2026-04-24 00:07 43.60894 3.06380 14756 ft 367 kts 320°
2026-04-24 00:07 43.62857 3.04082 15434 ft 370 kts 320°
2026-04-24 00:07 43.64803 3.01802 16077 ft 372 kts 320°
2026-04-24 00:07 43.66766 2.99498 16698 ft 374 kts 320°
2026-04-24 00:08 43.68761 2.97154 17316 ft 377 kts 320°
2026-04-24 00:08 43.70755 2.94809 17900 ft 379 kts 320°
2026-04-24 00:08 43.72748 2.92465 18492 ft 381 kts 320°
2026-04-24 00:08 43.74772 2.90071 19061 ft 383 kts 318°
2026-04-24 00:09 43.76557 2.87314 19574 ft 387 kts 306°
2026-04-24 00:09 43.77856 2.84066 20119 ft 391 kts 294°
2026-04-24 00:09 43.78672 2.80511 20667 ft 394 kts 287°
2026-04-24 00:09 43.79357 2.76817 21178 ft 396 kts 286°
2026-04-24 00:10 43.80022 2.73140 21666 ft 399 kts 287°
2026-04-24 00:10 43.80702 2.69388 22156 ft 401 kts 287°
2026-04-24 00:10 43.81381 2.65672 22632 ft 404 kts 287°
2026-04-24 00:10 43.82068 2.61926 23088 ft 406 kts 287°
2026-04-24 00:11 43.82769 2.58118 23550 ft 408 kts 287°
2026-04-24 00:11 43.83438 2.54341 23992 ft 410 kts 286°
2026-04-24 00:11 43.84095 2.50487 24419 ft 412 kts 286°
2026-04-24 00:11 43.84745 2.46643 24809 ft 415 kts 286°
2026-04-24 00:12 43.85405 2.42735 25201 ft 417 kts 286°
2026-04-24 00:12 43.86063 2.38826 25585 ft 419 kts 286°
2026-04-24 00:12 43.86726 2.34886 25959 ft 421 kts 285°
2026-04-24 00:12 43.87388 2.30940 26318 ft 424 kts 285°
2026-04-24 00:13 43.88057 2.26952 26655 ft 426 kts 285°
2026-04-24 00:13 43.88722 2.22975 26981 ft 428 kts 285°
2026-04-24 00:13 43.89397 2.18927 27310 ft 430 kts 285°
2026-04-24 00:13 43.90065 2.14911 27631 ft 432 kts 285°
2026-04-24 00:14 43.90732 2.10883 27915 ft 434 kts 285°
2026-04-24 00:14 43.91407 2.06813 28194 ft 436 kts 285°
2026-04-24 00:14 43.92087 2.02696 28469 ft 438 kts 285°
2026-04-24 00:14 43.92762 1.98607 28750 ft 439 kts 285°
2026-04-24 00:15 43.93441 1.94487 29104 ft 438 kts 285°
2026-04-24 00:15 43.94136 1.90380 29487 ft 436 kts 287°
2026-04-24 00:15 43.94953 1.86393 29877 ft 433 kts 290°
2026-04-24 00:15 43.95922 1.82474 30250 ft 431 kts 292°
2026-04-24 00:16 43.97050 1.78606 30617 ft 429 kts 296°
2026-04-24 00:16 43.98293 1.74919 30975 ft 427 kts 298°
2026-04-24 00:16 43.99659 1.71240 31293 ft 427 kts 299°
2026-04-24 00:16 44.01029 1.67605 31586 ft 427 kts 299°
2026-04-24 00:17 44.02396 1.63982 31860 ft 427 kts 299°
2026-04-24 00:17 44.03779 1.60313 32134 ft 427 kts 299°
2026-04-24 00:17 44.05139 1.56698 32415 ft 426 kts 299°
2026-04-24 00:17 44.06517 1.53027 32713 ft 426 kts 299°
2026-04-24 00:18 44.07870 1.49419 33001 ft 424 kts 299°
2026-04-24 00:18 44.09228 1.45792 33274 ft 424 kts 299°
2026-04-24 00:18 44.10587 1.42162 33520 ft 424 kts 299°
2026-04-24 00:18 44.11945 1.38526 33777 ft 423 kts 299°
2026-04-24 00:19 44.13303 1.34882 34037 ft 422 kts 298°
2026-04-24 00:19 44.14648 1.31271 34295 ft 421 kts 298°
2026-04-24 00:19 44.15985 1.27677 34504 ft 422 kts 298°
2026-04-24 00:19 44.17328 1.24064 34678 ft 423 kts 298°